Wind_Speed
126 125 123 122 121 121 121 121 119 117 116 116 116 116 116 116 116 115 115 116 116 116 116 116 115 115 114 114 114 114 115 115 115 115 115 115 115 115 115 116 116 116 117 117 117 117 118 118 118 119 119 119 120 120 120 121 121 122 123 124 125 127 128 128 129 130 130 131 131 131 132 132 132 133 133 134 134 134 134 134 133 133 133 133 134 134
131 131 130 129 128 127 127 126 124 122 121 121 121 121 120 120 119 119 119 119 119 119 120 120 119 119 118 118 118 118 118 118 118 118 118 118 118 118 118 119 119 119 120 120 120 120 121 121 121 121 122 122 122 122 123 123 123 124 125 126 127 128 129 130 130 131 132 132 133 133 133 133 134 134 135 135 135 135 135 136 136 135 135 135 135 136
132 133 133 133 133 133 133 131 129 127 125 125 125 125 125 124 124 123 123 123 123 123 123 123 123 123 122 122 121 121 122 122 122 122 122 121 121 121 121 121 121 122 122 122 122 123 123 123 123 123 124 124 124 124 124 125 125 125 126 127 128 128 129 130 131 132 132 133 133 134 134 134 135 135 135 136 136 137 137 137 137 137 137 137 137 138
132 132 133 134 135 136 136 136 134 131 129 128 128 128 128 128 128 127 127 127 127 127 127 127 127 127 126 126 125 125 125 125 125 125 125 125 125 124 124 124 124 124 124 124 125 125 125 125 125 125 125 125 126 126 126 126 127 127 127 128 128 129 130 130 131 132 133 133 134 134 135 135 136 136 136 137 137 138 138 139 139 139 139 139 139 139
133 133 133 133 134 136 137 137 136 134 132 131 131 131 130 130 130 130 130 130 130 130 130 131 130 130 130 129 129 128 128 128 128 128 128 128 127 127 127 127 127 127 127 127 127 127 127 127 127 127 127 127 127 127 128 128 128 129 129 129 130 130 131 131 132 132 133 134 134 135 135 136 136 137 137 138 138 139 140 140 140 141 141 141 141 140
135 134 133 133 134 135 136 136 136 135 134 133 133 133 132 132 131 131 131 132 132 132 132 132 133 132 132 132 132 131 131 131 131 131 131 130 130 130 130 129 129 129 129 129 129 129 129 129 129 129 129 129 129 129 129 130 130 130 131 131 131 132 132 132 133 133 134 134 135 136 136 137 137 138 138 139 139 140 140 141 141 141 141 141 141 141
136 136 135 134 134 135 136 136 135 135 134 134 134 134 134 133 133 132 132 132 133 133 133 133 133 133 133 133 133 133 133 133 133 133 133 132 132 132 132 131 131 131 131 131 131 130 130 130 130 130 130 130 131 131 131 131 131 132 132 132 133 133 133 133 134 134 135 135 136 136 137 138 138 139 139 139 140 140 140 141 141 141 141 141 141 141
136 136 136 135 135 136 136 136 136 135 134 134 134 134 134 134 134 133 133 133 133 133 133 133 134 134 134 134 134 134 134 134 134 134 134 134 133 133 133 132 132 132 132 132 132 131 131 131 131 131 131 131 131 132 132 132 132 133 133 133 134 134 135 135 135 136 136 137 137 138 138 139 139 140 140 140 140 141 141 141 141 141 141 141 141 141
135 135 135 135 135 135 136 136 136 136 135 134 134 133 133 133 134 134 134 134 133 133 133 133 133 133 134 134 134 134 134 134 134 134 134 134 134 134 133 133 132 132 132 132 132 132 132 132 132 132 132 132 132 132 132 133 133 134 134 135 135 136 136 137 137 138 138 139 139 139 140 140 140 140 141 141 141 141 141 141 141 141 141 141 141 141
133 133 133 134 134 134 135 135 136 136 136 135 134 134 133 133 133 133 133 133 133 133 133 132 132 132 133 133 133 133 133 133 133 133 133 133 133 133 133 133 132 132 132 132 132 132 132 132 132 132 132 132 133 133 133 134 134 135 136 136 137 138 138 139 139 140 140 140 140 141 141 141 141 141 141 141 142 142 142 141 141 141 141 141 141 141
130 131 131 131 132 132 133 133 134 135 135 134 134 134 134 133 133 132 132 132 133 133 132 132 131 131 131 131 131 131 131 131 131 131 132 132 132 132 132 132 132 132 132 132 132 132 132 132 133 133 133 134 134 134 135 136 136 137 138 138 139 140 140 141 141 141 141 142 142 142 142 142 142 142 142 142 142 142 142 142 142 142 142 141 141 141
127 127 128 128 128 129 130 130 131 132 132 131 131 132 132 132 132 131 131 131 132 132 131 131 131 131 130 130 130 130 130 129 129 129 130 130 130 131 131 132 132 132 132 132 132 133 133 133 133 134 134 135 135 136 136 137 138 139 139 140 141 141 142 142 142 142 143 143 143 143 143 143 143 143 143 143 143 143 143 142 142 142 142 142 142 142
124 124 124 125 125 125 126 127 127 128 128 128 128 129 129 130 130 130 129 129 130 130 130 129 129 129 129 129 128 128 128 128 128 128 128 128 128 129 130 130 131 132 132 132 133 133 133 133 133 134 134 135 136 137 137 138 139 139 140 141 141 142 142 143 143 143 143 143 143 143 143 143 143 143 143 143 143 143 143 143 143 143 143 143 143 142
120 121 121 121 122 122 123 123 124 124 125 125 126 126 126 127 127 126 126 127 127 128 128 127 127 127 128 128 127 127 126 126 126 127 127 127 127 127 128 128 129 130 131 131 132 132 132 133 133 134 134 135 135 136 137 137 138 139 140 140 141 142 142 142 143 143 143 143 143 143 143 143 143 143 144 143 143 143 143 144 143 143 143 143 143 143
117 117 117 118 119 119 120 120 120 121 122 122 123 123 123 123 123 123 123 124 124 125 125 125 125 125 126 126 125 125 125 125 125 125 125 126 126 126 126 126 127 128 129 129 130 131 131 132 132 133 134 134 135 135 136 137 137 138 139 139 140 140 141 141 142 142 142 143 143 143 143 143 143 143 143 143 143 143 143 144 144 143 144 143 143 143
114 114 114 115 116 116 117 117 117 118 118 119 119 119 119 119 120 120 120 121 121 122 122 122 122 123 123 124 124 123 123 123 123 123 124 124 125 125 124 124 125 126 126 127 128 128 129 129 130 131 132 133 134 134 135 135 136 136 137 138 138 139 139 140 140 141 141 141 141 142 142 142 142 142 142 142 143 143 143 143 143 143 143 143 143 143
110 111 111 112 112 113 114 114 114 114 115 115 116 116 116 116 117 117 117 117 118 118 118 119 119 119 120 121 121 121 120 120 120 121 122 122 123 123 122 122 123 123 124 124 125 125 126 126 127 128 129 130 131 132 132 133 134 134 135 135 136 136 137 137 138 138 138 139 139 139 140 140 140 140 141 141 141 141 141 141 141 141 141 141 141 141
106 107 107 108 109 109 110 110 110 111 111 112 112 112 113 113 113 113 113 114 114 114 115 115 116 116 116 117 118 118 118 117 117 118 119 120 120 120 120 120 120 121 121 122 122 122 122 123 124 124 125 126 127 128 129 130 130 131 132 132 133 133 134 134 135 135 135 136 136 136 137 137 137 137 138 138 138 138 138 138 138 138 139 139 139 139
102 102 103 103 104 105 105 106 106 107 107 107 108 108 108 109 109 109 109 110 110 110 111 111 111 112 112 113 113 114 113 113 113 114 115 116 116 117 116 116 116 117 118 118 118 118 119 119 120 120 121 122 122 123 124 125 126 126 127 128 129 129 130 130 131 131 132 132 132 133 133 133 133 134 134 134 134 134 134 134 135 135 135 134 134 134
96 97 98 98 99 100 100 101 101 102 102 103 103 103 103 104 104 104 105 105 105 106 106 106 107 108 108 108 109 109 109 108 108 109 110 111 112 112 112 112 112 113 113 114 114 114 114 115 115 116 116 117 117 118 119 119 120 121 122 123 124 124 125 126 126 127 127 128 128 128 128 129 129 129 129 129 129 129 129 129 129 129 129 129 129 129
91 92 93 93 94 94 95 96 97 97 97 98 98 98 99 99 99 100 100 100 101 101 102 102 102 103 104 104 104 104 104 104 104 105 106 107 107 108 108 108 108 108 109 109 110 110 110 111 111 111 112 112 113 113 114 115 115 116 117 118 118 119 119 120 121 121 122 122 122 123 123 123 123 123 123 123 123 124 124 124 124 123 123 123 123 123
87 88 89 89 89 90 91 91 92 92 93 93 93 94 94 95 95 95 96 96 97 97 98 98 99 99 100 100 100 100 100 100 100 101 102 103 103 104 104 104 104 104 105 106 106 106 107 107 108 108 108 109 109 109 110 111 111 112 112 113 113 113 114 114 115 115 116 116 116 116 117 117 117 117 117 117 117 117 117 117 117 117 117 117 116 116
84 85 85 86 86 87 87 88 88 89 89 90 90 90 91 91 92 92 93 93 93 94 94 95 96 96 96 97 97 97 97 97 97 97 98 99 100 101 101 101 101 101 102 103 103 104 104 104 105 105 105 106 106 107 107 107 108 108 108 109 109 109 109 109 110 110 110 110 110 110 110 110 110 110 110 111 111 111 111 111 111 110 110 110 110 110
82 83 83 84 84 84 85 85 86 86 87 87 87 88 88 89 89 89 90 90 91 91 92 92 93 93 93 94 94 94 94 94 94 94 95 96 97 98 98 98 98 99 100 100 101 101 101 102 102 102 103 103 103 104 104 104 105 105 105 105 105 105 105 105 105 105 105 105 104 104 104 104 104 105 105 105 105 105 105 105 105 105 104 104 104 104
81 81 82 82 82 83 83 83 84 84 84 85 85 86 86 86 87 87 87 88 88 88 89 89 90 90 91 91 91 91 91 91 91 91 92 93 94 95 95 95 96 96 97 98 98 98 99 99 100 100 100 100 101 101 101 101 101 101 101 101 101 101 101 101 100 100 100 100 99 99 99 99 99 100 100 100 100 100 100 100 100 100 99 99 99 99
80 81 81 81 81 81 82 82 82 82 82 83 83 83 83 84 84 84 85 85 85 86 86 86 87 87 88 88 88 88 88 88 88 88 89 90 91 91 92 92 93 93 94 95 95 96 96 97 97 97 97 97 97 97 98 98 98 98 97 97 97 97 97 96 96 96 95 95 95 95 95 95 95 95 96 96 96 96 96 96 95 95 95 95 95 95
80 81 81 81 81 81 81 81 81 81 81 81 81 81 82 82 82 82 82 82 82 83 83 83 84 84 85 85 85 85 85 84 85 85 86 87 87 88 89 90 90 90 91 92 92 93 93 94 94 94 94 94 94 94 94 94 94 93 93 93 93 93 92 92 92 91 91 91 91 91 91 92 92 92 92 92 92 92 92 92 92 92 91 91 91 91
80 80 81 81 81 81 81 81 80 80 80 80 80 80 80 80 80 80 80 80 80 80 80 81 81 81 81 82 82 82 81 81 82 82 83 83 85 86 86 87 87 87 88 89 89 90 90 90 91 91 91 91 90 90 90 90 89 89 89 89 89 88 88 88 88 88 88 88 88 88 88 88 88 88 89 89 89 89 89 89 89 89 88 88 88 88
79 80 80 80 80 80 80 80 80 80 80 79 79 79 79 78 78 78 78 78 78 78 78 78 78 79 79 79 79 79 79 79 79 79 80 81 82 83 83 84 84 84 85 85 86 87 87 87 87 88 88 87 87 87 86 86 85 85 85 85 84 84 84 84 84 84 84 85 85 85 85 85 85 85 86 86 86 86 86 86 86 86 86 85 85 85
78 78 79 79 80 80 80 80 80 79 79 79 79 78 78 77 77 77 76 76 76 76 76 76 76 76 77 77 77 77 77 76 76 76 77 78 79 80 80 81 81 81 81 82 83 83 84 85 85 85 85 84 84 84 83 83 82 81 81 81 81 81 81 81 81 81 81 82 82 82 82 82 83 83 83 83 83 83 83 83 83 83 83 83 83 83
77 77 77 78 78 78 79 79 79 78 78 78 78 78 77 76 76 75 75 75 74 74 74 74 74 75 75 75 75 75 75 74 74 74 75 76 77 77 77 78 78 78 78 78 79 80 81 82 82 82 82 82 82 81 80 80 79 78 78 78 77 77 77 77 78 78 78 79 79 79 80 80 80 80 80 81 81 81 81 81 81 80 80 80 80 80
75 75 76 76 76 77 77 77 77 77 77 77 77 77 76 76 75 75 74 73 73 73 73 73 73 73 73 73 73 73 73 72 72 72 72 73 74 74 75 75 75 75 75 75 76 77 78 79 80 80 80 79 79 79 78 77 76 75 75 75 75 75 74 75 75 75 76 76 76 77 77 77 77 78 78 78 78 79 79 78 78 78 78 78 78 78
73 73 73 74 74 75 75 75 76 76 76 76 76 75 75 75 74 74 73 72 72 72 72 72 72 72 72 72 72 71 71 70 70 69 70 70 71 72 72 72 72 73 73 73 73 74 75 76 77 78 78 78 77 77 76 75 74 73 73 72 72 72 72 72 72 73 73 74 74 74 74 75 75 75 76 76 76 76 76 76 76 75 75 75 75 75
71 71 71 71 72 72 73 73 74 74 74 75 75 74 74 74 73 73 72 71 71 71 70 70 70 70 70 70 70 70 69 68 68 67 67 68 69 69 69 70 70 70 70 70 71 71 72 73 74 75 76 76 75 75 74 73 72 71 71 70 70 70 70 70 70 71 71 71 71 72 72 72 73 73 73 74 74 74 74 74 73 73 73 73 73 73
69 69 69 69 69 70 70 70 71 72 72 73 73 73 73 73 72 72 71 70 70 69 69 69 69 69 69 69 68 68 67 66 66 65 65 66 66 67 67 68 68 68 68 68 69 69 70 70 71 72 73 74 74 73 72 71 70 70 69 69 69 68 68 68 68 68 69 69 69 69 70 70 70 71 71 71 72 72 72 71 71 71 71 71 71 71
67 67 67 67 67 67 67 67 68 69 69 70 71 71 71 71 71 71 70 69 69 68 68 68 67 67 67 67 66 66 66 65 64 64 64 64 65 65 65 66 66 66 66 66 67 67 68 68 69 69 70 71 71 71 71 70 69 68 68 67 67 67 67 67 67 67 67 67 67 67 68 68 68 69 69 69 69 69 70 69 69 69 69 69 69 69
66 66 65 65 65 65 65 65 65 65 66 67 68 68 69 70 70 69 69 68 68 67 67 66 66 66 65 65 64 64 64 63 63 62 62 63 63 63 64 64 64 64 64 64 65 65 66 66 67 67 68 68 69 69 69 68 67 67 66 66 66 66 66 65 65 65 65 65 65 65 66 66 66 67 67 67 67 68 68 68 68 67 67 67 67 67
64 64 64 64 63 63 63 62 62 62 63 63 64 65 66 67 67 68 67 67 66 66 65 65 64 64 63 63 63 62 62 62 61 61 61 61 61 62 62 62 62 62 62 63 63 63 64 64 64 65 65 66 66 67 67 66 66 65 65 65 65 64 64 64 63 63 63 64 64 64 64 64 64 65 65 65 66 66 66 66 66 66 66 66 66 66
63 62 62 62 62 61 61 60 60 60 60 61 61 62 63 64 65 66 66 65 65 64 64 63 63 62 62 61 61 61 60 60 60 60 60 60 60 60 60 61 61 61 61 61 61 61 62 62 63 63 63 64 64 65 65 65 64 64 64 64 64 63 63 62 62 62 62 62 62 62 62 63 63 63 64 64 65 65 65 65 65 65 65 65 65 65
61 61 61 60 60 59 59 59 58 58 58 58 59 59 60 61 62 63 64 64 63 63 63 62 61 60 60 59 59 59 59 59 58 58 58 58 59 59 59 59 59 59 59 59 60 60 60 60 61 61 61 62 63 63 63 63 63 63 63 63 63 63 62 61 61 60 60 60 61 61 61 61 62 62 63 63 63 64 64 64 64 64 64 64 64 64
59 59 59 59 58 58 57 57 57 56 56 56 56 57 57 58 59 60 61 62 62 62 61 61 60 59 59 58 58 57 57 57 57 57 57 57 57 57 58 58 58 58 58 58 58 58 58 59 59 59 60 60 61 61 62 62 61 61 61 61 62 62 61 60 60 59 59 59 59 59 60 60 61 61 62 62 62 63 63 63 63 63 63 63 63 63
58 57 57 57 57 56 56 56 55 55 54 54 54 54 55 56 56 57 58 59 60 60 60 59 59 58 57 57 56 56 56 56 56 56 56 56 56 56 56 56 57 57 57 57 57 57 57 57 58 58 58 59 59 60 60 61 60 60 60 60 60 61 61 60 59 58 58 58 58 58 59 59 59 60 61 61 61 62 62 62 63 63 63 63 62 62
56 56 56 56 55 55 55 54 54 53 53 53 53 53 53 54 54 55 56 57 57 58 58 58 58 57 57 56 55 55 55 55 55 55 55 55 55 55 55 55 55 56 56 56 56 56 56 56 56 57 57 57 58 59 59 59 59 59 59 59 59 59 60 59 58 58 57 57 57 57 58 58 59 59 60 60 61 61 61 62 62 62 62 62 62 62
55 55 55 55 54 54 54 53 53 52 52 52 51 52 52 52 52 53 54 54 55 56 56 56 57 56 56 55 55 54 54 54 53 53 53 53 54 54 54 54 54 55 55 55 55 55 55 55 55 55 56 56 57 57 58 58 58 58 58 58 58 58 58 58 58 57 57 57 57 57 57 57 58 58 59 60 60 61 61 61 61 61 61 61 61 61
54 54 54 54 53 53 53 52 52 51 51 51 50 50 50 51 51 51 52 52 53 54 54 55 55 55 55 55 54 54 53 53 52 52 52 52 52 53 53 53 54 54 54 54 55 55 55 55 55 55 55 55 55 56 56 57 57 57 57 57 57 57 57 57 57 57 57 57 57 57 57 57 57 58 59 59 60 60 61 61 61 61 61 60 60 60
54 53 53 53 52 52 52 51 51 51 50 50 50 49 49 50 50 50 50 51 51 52 52 53 53 53 53 54 53 53 53 52 52 52 51 51 51 52 52 52 53 53 53 54 54 54 54 54 54 54 54 54 54 55 55 55 56 56 56 56 56 56 56 56 56 56 57 57 57 57 57 57 57 57 58 59 59 60 60 60 60 60 60 60 60 60
53 53 52 52 52 51 51 51 50 50 49 49 49 49 49 49 49 49 49 49 50 50 50 51 51 51 52 52 52 52 52 52 51 51 51 51 51 51 51 51 52 52 52 53 53 54 54 54 54 54 54 54 54 54 54 54 55 55 55 55 55 55 55 56 56 56 56 57 57 57 57 56 57 57 58 58 59 60 60 60 60 60 60 59 59 59
53 52 52 52 51 51 51 50 50 49 49 48 48 48 48 48 48 48 48 48 48 49 49 49 49 50 50 50 50 51 51 51 51 51 50 50 50 50 50 50 51 51 51 52 52 53 53 53 53 53 53 53 53 54 54 54 53 53 53 54 54 54 55 55 55 56 56 56 57 56 56 56 57 57 57 58 59 59 60 60 60 60 59 59 59 59
52 52 52 51 51 51 50 50 49 48 48 48 47 47 47 47 47 47 47 47 48 48 48 48 48 48 48 48 49 49 49 49 50 50 50 50 50 50 50 50 50 50 51 51 51 52 52 53 53 52 52 52 52 53 53 53 53 52 52 53 53 54 54 55 55 55 56 56 56 56 56 56 56 56 57 57 58 59 59 60 60 60 59 58 58 58
52 52 51 51 51 50 50 49 49 48 48 47 47 47 47 46 46 46 46 47 47 47 47 47 47 47 47 47 47 47 47 48 48 49 49 49 49 50 50 50 50 50 50 50 51 51 52 52 52 52 51 51 51 52 52 52 52 52 52 52 52 53 54 54 55 55 55 56 56 56 56 56 55 55 56 56 57 58 59 59 60 59 59 58 58 57
52 51 51 51 51 50 50 49 48 48 47 47 47 46 46 46 46 46 46 46 46 46 46 46 46 46 46 46 46 46 46 46 47 47 48 48 49 49 49 49 50 50 50 50 50 51 51 52 52 51 51 50 50 50 51 51 51 51 51 51 52 52 53 54 54 55 55 55 56 56 56 55 55 55 55 55 56 57 57 58 59 59 59 58 57 57
Wind_Direction
266 266 266 266 266 267 267 268 268 269 269 270 270 270 271 271 272 272 272 273 273 273 273 273 273 273 273 273 273 273 274 274 274 275 275 275 276 276 276 276 277 277 277 277 278 278 278 278 278 278 278 278 278 278 278 278 278 279 279 279 280 280 281 281 281 282 282 282 283 283 283 283 284 284 284 285 285 285 285 285 286 286 286 286 287 287
266 267 267 267 267 267 267 267 268 268 268 269 269 270 270 270 271 271 271 272 272 272 272 273 273 273 273 273 273 273 273 274 274 275 275 275 275 276 276 276 276 277 277 277 277 277 277 278 278 278 278 278 278 278 278 278 278 278 278 279 279 279 280 280 281 281 282 282 282 283 283 283 283 284 284 284 284 285 285 285 286 286 286 286 287 287
266 266 267 267 267 267 268 268 268 268 268 268 269 269 269 270 270 270 270 271 271 271 272 272 272 273 273 273 273 273 273 274 274 275 275 275 275 275 276 276 276 276 276 277 277 277 277 277 277 277 278 278 278 278 278 278 278 278 278 278 279 279 279 280 280 281 281 281 282 282 282 283 283 283 284 284 284 285 285 285 286 286 286 287 287 287
266 266 266 267 267 268 268 268 269 269 269 269 269 269 269 269 269 270 270 270 270 271 271 272 272 272 273 273 273 273 273 274 274 274 275 275 275 276 276 276 276 276 276 276 277 277 277 277 277 278 278 278 278 278 278 278 278 278 278 278 279 279 279 279 280 280 280 281 281 282 282 282 283 283 283 284 284 284 285 285 286 286 286 287 287 287
267 267 267 267 267 268 268 269 269 269 269 269 269 269 270 270 270 270 270 270 270 270 271 271 272 272 272 273 273 273 273 274 274 274 275 275 275 276 276 276 276 276 276 276 277 277 277 277 277 277 278 278 278 278 278 278 278 278 278 278 278 279 279 279 279 280 280 280 281 281 282 282 282 283 283 283 284 284 285 285 286 286 287 287 287 287
267 267 268 268 268 268 269 269 269 269 270 270 270 270 270 270 270 270 270 270 270 271 271 271 272 272 272 273 273 273 273 274 274 274 275 275 275 275 276 276 276 276 276 276 277 277 277 277 277 277 278 278 278 278 278 278 278 278 278 278 278 278 279 279 279 279 280 280 280 281 281 281 282 282 283 283 284 284 284 285 285 286 286 287 287 287
267 267 268 268 268 268 269 269 270 270 270 270 270 270 271 271 271 271 271 271 271 271 271 272 272 272 272 273 273 273 274 274 274 274 275 275 275 275 276 276 276 276 276 276 277 277 277 277 277 277 277 278 278 278 278 278 278 278 278 278 278 278 278 279 279 279 279 280 280 280 281 281 281 282 282 283 283 283 284 284 285 285 286 286 286 287
267 267 267 268 268 268 269 269 270 270 270 270 270 271 271 271 271 271 271 271 272 272 272 272 272 273 273 273 273 274 274 274 274 275 275 275 275 275 276 276 276 276 276 276 277 277 277 277 277 277 277 277 277 277 278 278 278 278 278 278 278 278 278 279 279 279 279 279 280 280 280 281 281 281 282 282 282 283 283 283 284 284 285 285 285 286
267 267 267 267 268 268 269 269 269 270 270 270 270 271 271 271 271 272 272 272 272 272 272 273 273 273 273 274 274 274 274 274 275 275 275 275 275 276 276 276 276 276 276 276 276 277 277 277 277 277 277 277 277 277 277 277 277 278 278 278 278 278 278 278 279 279 279 279 280 280 280 280 281 281 281 281 282 282 282 283 283 283 284 284 284 285
267 267 268 268 268 268 268 269 269 269 270 270 270 271 271 271 271 272 272 272 272 273 273 273 273 273 274 274 274 274 274 275 275 275 275 275 275 276 276 276 276 276 276 276 276 276 276 276 276 277 277 277 277 277 277 277 277 277 277 277 277 278 278 278 278 278 279 279 279 279 280 280 280 280 280 281 281 281 282 282 282 282 283 283 283 284
268 268 268 268 268 268 268 269 269 269 270 270 270 270 271 271 271 272 272 272 273 273 273 273 273 273 274 274 274 274 274 274 275 275 275 275 275 275 275 276 276 276 276 276 276 276 276 276 276 276 276 276 276 276 276 276 276 276 276 276 277 277 277 277 277 278 278 278 278 279 279 279 279 280 280 280 280 281 281 281 281 282 282 282 282 283
268 268 268 268 268 269 269 269 269 270 270 270 270 270 271 271 271 272 272 272 273 273 273 273 273 273 274 274 274 274 274 274 274 274 274 274 275 275 275 275 275 275 275 275 275 275 275 275 275 275 275 274 274 274 275 275 275 275 275 275 276 276 276 276 277 277 277 278 278 278 278 278 279 279 279 280 280 280 280 280 281 281 281 281 281 282
268 268 269 269 269 269 269 269 270 270 270 270 270 271 271 271 272 272 272 272 273 273 273 273 273 273 274 274 274 274 274 274 274 274 274 274 274 274 274 274 274 274 274 274 274 274 274 274 274 274 274 274 274 274 274 274 274 274 274 274 275 275 275 276 276 276 277 277 277 277 278 278 278 278 279 279 279 279 280 280 280 280 280 281 281 281
268 269 269 269 269 269 269 270 270 270 270 271 271 271 271 272 272 272 272 272 272 273 273 273 273 273 273 274 273 274 274 274 274 274 273 273 273 273 273 273 273 273 273 273 273 273 274 274 274 273 273 273 273 273 273 273 273 274 274 274 274 275 275 275 275 276 276 276 277 277 277 277 278 278 278 278 279 279 279 279 279 280 280 280 280 280
268 269 269 269 269 269 270 270 270 270 271 271 271 271 272 272 272 272 272 272 272 273 273 273 273 273 273 273 273 273 273 273 273 273 273 273 273 273 273 272 272 272 273 273 273 273 273 273 273 273 273 273 273 273 273 273 273 274 274 274 274 274 275 275 275 275 276 276 276 276 277 277 277 277 278 278 278 278 279 279 279 279 279 279 280 280
268 269 269 269 269 269 270 270 270 270 271 271 271 271 271 272 272 272 272 272 272 273 273 273 273 273 273 273 273 273 273 273 273 273 273 273 273 273 273 272 272 272 272 272 272 272 272 273 273 273 273 273 273 273 273 274 274 274 274 274 274 274 275 275 275 275 275 276 276 276 277 277 277 277 277 278 278 278 278 279 279 279 279 279 279 279
268 269 269 269 269 270 270 270 270 270 271 271 271 271 271 272 272 272 272 272 272 272 272 272 272 272 273 273 273 273 273 273 273 273 273 273 273 273 273 273 272 272 272 272 272 272 272 272 272 272 272 272 273 273 273 273 274 274 274 274 274 274 275 275 275 275 275 276 276 276 276 277 277 277 277 278 278 278 278 278 279 279 279 279 279 279
269 269 269 269 270 270 270 270 270 270 271 271 271 271 271 271 272 272 272 272 272 272 272 272 272 272 272 273 273 273 273 273 273 273 273 273 273 273 273 273 273 272 273 273 273 272 272 272 272 272 272 272 272 272 273 273 273 273 274 274 274 274 274 275 275 275 275 276 276 276 276 277 277 277 277 277 278 278 278 278 279 279 279 279 279 279
269 270 270 270 270 270 270 270 271 271 271 271 271 271 272 272 272 272 272 272 272 272 272 272 272 272 272 273 273 273 273 273 273 273 273 273 273 273 273 273 273 273 273 273 273 273 273 273 272 272 272 272 272 272 272 272 273 273 273 273 273 274 274 274 274 275 275 275 276 276 276 276 277 277 277 277 278 278 278 278 278 279 279 279 279 279
270 270 270 270 271 271 271 271 271 271 271 272 272 272 272 272 272 272 272 272 272 272 272 272 272 273 273 273 273 273 273 273 273 273 273 273 273 273 274 274 273 273 273 273 273 273 273 273 273 273 273 273 273 272 272 272 272 272 273 273 273 273 273 274 274 274 275 275 275 275 276 276 276 277 277 277 277 277 278 278 278 278 278 279 279 279
271 271 271 271 271 271 272 272 272 272 272 272 272 272 272 273 273 273 273 273 273 273 273 273 273 273 273 273 273 273 274 273 273 273 273 274 274 274 274 274 274 274 274 274 274 274 274 274 274 274 273 273 273 273 273 273 273 273 273 273 273 273 273 273 274 274 274 274 275 275 275 276 276 276 277 277 277 277 277 278 278 278 278 278 278 279
272 272 272 272 272 272 272 273 273 273 273 273 273 273 273 273 273 273 273 273 273 273 273 273 273 273 274 274 274 274 274 274 274 274 274 274 274 274 275 275 275 274 274 274 274 274 274 274 274 274 274 274 274 274 274 273 273 273 273 273 273 273 273 274 274 274 274 274 275 275 275 275 276 276 276 277 277 277 277 277 277 278 278 278 278 278
273 273 273 273 273 273 273 274 274 274 274 274 274 274 274 274 274 274 274 274 274 274 274 274 274 274 274 274 274 275 275 275 275 275 275 275 275 275 275 275 275 275 275 275 275 275 275 274 274 274 274 274 274 274 274 274 274 274 274 274 274 274 274 274 274 274 274 275 275 275 275 276 276 276 276 276 276 277 277 277 277 277 278 278 278 278
274 274 274 274 274 274 274 275 275 274 274 274 274 274 274 274 274 274 274 274 274 274 274 274 274 275 275 275 275 275 275 275 275 275 275 275 275 275 276 275 275 275 275 275 275 275 275 275 274 274 274 274 274 274 274 274 274 274 274 274 274 274 274 274 274 275 275 275 275 275 275 276 276 276 276 276 276 276 277 277 277 277 278 278 278 278
275 276 276 276 276 276 276 276 276 276 276 275 275 275 275 275 275 275 275 275 275 275 275 275 275 275 275 275 275 275 275 275 275 275 275 275 275 275 276 275 275 275 275 275 275 275 275 275 275 275 274 274 274 274 274 274 274 274 274 274 274 275 275 275 275 275 275 275 275 275 275 276 276 276 276 276 276 276 277 277 277 277 278 278 278 278
277 277 277 277 277 277 277 277 277 277 277 277 277 277 276 276 276 276 276 276 276 276 276 276 276 276 276 276 276 276 276 276 276 275 275 275 275 275 276 275 275 275 275 275 275 275 275 275 275 275 274 274 274 274 274 274 274 274 274 275 275 275 275 275 275 275 275 275 275 275 276 276 276 276 276 276 276 277 277 277 277 278 278 278 278 278
278 278 279 279 279 279 279 279 278 278 278 278 278 278 278 278 277 277 277 277 277 277 277 277 277 277 277 277 276 276 276 276 276 276 276 276 276 276 276 276 275 275 275 275 275 275 275 275 275 275 275 274 274 274 274 274 274 274 275 275 275 275 275 275 275 275 275 275 275 276 276 276 276 276 276 277 277 277 277 278 278 278 278 278 278 279
279 279 279 280 280 280 280 280 280 280 280 280 279 279 279 279 279 279 278 278 278 278 278 278 278 278 278 277 277 277 277 277 276 276 276 276 276 276 276 276 275 275 275 275 276 275 275 275 275 275 275 275 275 275 274 274 274 275 275 275 275 275 275 275 275 276 276 276 276 276 276 276 276 277 277 277 277 278 278 278 278 278 278 278 278 278
278 279 279 280 280 281 281 281 281 281 281 281 281 280 280 280 280 280 279 279 279 279 279 279 279 279 279 278 278 278 278 277 277 277 276 276 276 276 276 276 276 275 276 276 276 276 276 276 275 275 275 275 275 275 275 275 275 275 275 275 275 275 275 276 276 276 276 276 276 276 277 277 277 277 277 277 278 278 278 278 278 278 278 278 278 278
277 278 279 280 280 281 281 281 281 282 282 282 281 281 281 281 281 281 280 280 280 280 280 280 280 280 280 279 279 279 278 278 278 277 277 276 276 276 276 276 276 276 276 276 276 276 276 276 276 276 276 276 276 276 276 276 276 276 276 276 276 276 276 276 276 276 276 276 276 277 277 277 277 277 277 277 277 278 278 278 278 278 278 278 278 278
276 277 278 279 280 280 281 281 281 282 282 282 282 282 282 282 282 281 281 281 281 281 281 281 281 281 280 280 280 279 279 279 278 278 277 277 276 276 276 276 276 276 276 276 276 277 277 277 277 277 277 277 277 277 277 276 276 276 276 276 276 276 276 276 276 276 276 276 277 277 277 277 277 277 277 277 277 277 277 277 278 278 278 278 278 279
276 277 277 278 279 280 281 281 281 282 282 282 282 282 282 282 282 282 282 282 282 282 282 282 282 281 281 281 281 280 280 280 279 278 278 277 277 277 276 276 276 276 276 276 277 277 277 278 278 278 278 278 277 277 277 277 277 277 277 277 277 277 277 277 277 277 277 277 277 277 277 277 277 277 277 277 277 277 277 278 278 278 278 278 278 279
275 276 277 278 279 280 280 281 281 282 282 282 282 282 283 283 283 283 283 283 283 283 283 283 283 282 282 282 282 281 281 281 280 279 278 278 277 277 277 277 277 277 277 277 277 277 277 278 278 278 279 278 278 278 278 278 278 278 278 278 278 277 277 277 277 277 277 277 277 277 277 277 277 277 277 277 277 278 278 278 278 278 278 279 279 279
275 276 277 278 278 279 280 280 281 281 282 282 282 282 283 283 283 283 283 284 284 284 284 284 283 283 283 283 282 282 282 281 281 280 279 279 278 278 278 277 277 277 277 277 277 277 277 278 278 279 279 279 279 279 279 279 279 279 279 279 278 278 278 277 277 277 277 277 277 277 277 277 277 277 277 278 278 278 278 278 278 279 279 279 279 279
275 276 276 277 278 278 279 280 280 281 281 282 282 283 283 283 283 284 284 284 284 284 284 284 284 284 284 283 283 283 282 282 281 281 280 279 279 279 278 278 278 278 278 278 278 278 278 278 278 279 279 280 280 280 280 280 280 280 280 279 279 279 278 278 278 278 278 278 278 278 278 278 278 278 278 278 278 278 279 279 279 279 279 279 279 279
275 276 276 276 277 277 278 278 279 280 280 281 282 282 283 283 284 284 284 284 284 284 284 284 284 284 284 284 284 283 283 283 282 281 281 280 280 280 279 279 279 279 279 278 278 278 278 278 278 279 279 280 280 280 281 281 281 281 280 280 280 279 279 279 279 279 278 278 278 278 278 278 278 278 278 279 279 279 279 279 279 279 279 279 279 279
275 275 276 276 276 277 277 277 278 278 279 280 281 282 283 283 284 284 284 285 285 285 285 285 285 284 284 284 284 284 283 283 283 282 281 281 280 280 280 280 280 279 279 279 279 279 279 279 279 279 279 280 280 281 281 281 281 281 281 281 280 280 280 280 280 279 279 279 279 279 279 279 279 279 279 279 279 279 279 279 279 279 279 279 279 279
275 275 276 276 276 276 276 277 277 277 278 279 280 281 282 283 283 284 284 284 285 285 285 285 285 285 284 284 284 284 284 283 283 282 282 282 281 281 281 280 280 280 280 280 280 280 280 280 280 280 280 280 280 281 281 281 282 281 281 281 281 280 280 280 280 280 280 280 280 280 280 280 280 280 280 280 279 279 279 279 279 279 279 279 279 279
275 275 276 276 276 277 276 276 277 277 277 278 279 280 281 282 283 283 284 284 285 285 285 285 285 285 285 284 284 284 284 283 283 283 283 282 282 281 281 281 281 281 281 280 280 280 280 280 280 281 281 281 281 281 281 281 282 282 282 282 281 281 281 281 281 281 281 281 281 281 281 281 281 281 280 280 280 280 280 280 280 280 280 280 280 279
276 276 277 277 277 277 277 277 277 277 278 278 279 280 281 282 282 283 284 284 285 285 285 285 285 285 285 284 284 284 284 283 283 283 283 283 282 282 282 282 282 281 281 281 281 281 281 281 281 281 281 281 282 282 282 282 282 282 282 282 282 282 282 282 282 282 282 282 282 282 282 281 281 281 281 281 281 281 281 281 280 280 280 280 280 280
277 277 278 278 278 279 278 278 278 278 279 279 279 280 281 281 282 283 284 284 285 285 285 285 285 285 285 285 284 284 284 284 284 283 283 283 283 283 282 282 282 282 282 282 282 282 282 282 282 282 282 282 282 282 282 283 283 283 283 283 283 283 283 283 283 283 283 283 282 282 282 282 282 281 281 281 281 281 281 281 281 281 281 281 281 281
278 279 279 280 280 280 280 280 280 280 280 280 280 281 281 282 282 283 284 284 285 285 285 286 286 285 285 285 285 284 284 284 284 284 284 284 283 283 283 283 283 283 283 283 283 283 282 282 282 283 283 283 283 283 283 283 283 284 284 284 284 284 284 284 284 284 284 283 283 283 282 282 282 282 282 282 282 282 281 281 281 281 282 282 282 282
280 280 281 281 282 282 282 282 282 282 282 282 281 282 282 282 282 283 283 284 284 285 285 286 286 286 285 285 285 285 284 284 284 284 284 284 284 284 284 284 284 284 284 284 284 283 283 283 283 283 283 283 283 284 284 284 284 284 284 285 285 285 285 285 285 285 285 284 283 283 283 283 283 283 283 283 282 282 282 282 282 282 282 282 282 282
281 282 282 283 283 283 283 284 284 284 283 283 283 283 283 283 283 283 284 284 284 285 285 285 286 286 286 285 285 285 285 285 285 285 285 285 285 285 285 285 285 285 285 285 285 284 284 284 284 284 284 284 284 284 284 285 285 285 285 285 285 286 286 286 286 286 285 285 284 284 284 284 284 284 284 283 283 283 283 283 283 283 283 283 283 283
283 283 284 284 284 285 285 285 285 285 285 285 285 285 285 284 284 284 284 284 284 284 285 285 285 285 285 285 285 285 285 285 285 285 285 285 286 286 286 286 286 286 286 286 285 285 285 285 285 285 284 284 285 285 285 285 285 286 286 286 286 286 286 287 287 287 286 286 285 285 285 285 285 285 285 285 284 284 284 284 284 284 284 284 284 284
284 284 285 285 285 286 286 286 286 286 287 287 287 287 286 286 286 285 285 285 285 284 285 285 285 285 285 285 285 285 285 285 285 285 285 286 286 286 286 286 286 286 286 286 286 286 286 286 286 286 286 285 285 285 286 286 286 286 287 287 287 287 287 287 287 287 287 286 286 286 286 286 286 286 286 286 286 285 285 285 285 285 285 285 285 285
285 285 286 286 286 286 287 287 287 288 288 288 288 288 288 287 287 287 286 286 285 285 285 285 285 285 285 285 285 286 286 286 286 286 286 286 286 286 286 286 286 286 286 286 286 286 286 286 286 286 286 286 286 286 286 286 286 287 287 288 288 288 288 287 287 287 287 287 287 287 287 287 287 287 287 286 286 286 286 286 286 286 286 285 285 285
286 286 286 287 287 287 288 288 288 289 289 289 289 289 289 289 288 288 287 287 286 286 285 285 285 284 285 285 285 286 286 286 286 286 287 286 286 286 286 286 286 286 286 286 286 287 287 287 287 287 287 287 287 287 287 287 287 287 288 288 288 288 288 288 288 287 287 287 287 287 287 287 287 287 287 287 287 287 287 287 286 286 286 286 286 285
286 287 287 288 288 288 288 289 289 289 290 290 290 290 290 290 289 289 288 287 287 286 286 285 285 285 285 285 285 285 286 286 287 287 287 287 287 287 287 287 287 287 286 287 287 287 287 287 287 287 287 287 287 288 287 288 288 288 288 288 288 288 288 288 288 288 288 288 287 287 288 288 287 288 288 288 287 287 287 287 287 287 287 286 286 286
287 287 288 288 289 289 289 290 290 290 291 291 291 291 291 291 290 289 289 288 288 287 286 286 286 285 285 285 285 286 286 286 287 287 287 288 288 288 288 288 287 287 287 287 287 287 287 287 287 286 287 287 288 288 288 288 288 288 288 288 288 288 288 288 288 288 288 288 288 288 288 288 288 288 288 288 288 288 288 288 288 287 287 287 287 286
287 288 288 289 289 290 290 291 291 291 292 292 292 292 292 291 291 290 289 289 288 288 287 287 286 286 286 286 286 286 286 287 287 287 288 288 288 288 288 288 288 288 288 288 287 287 287 287 287 287 287 287 287 288 288 289 289 289 289 289 288 288 288 288 288 288 288 288 288 288 288 288 288 288 288 288 288 288 288 288 288 288 288 288 288 287
Height
10568 10567 10566 10566 10566 10564 10561 10559 10561 10563 10563 10561 10559 10559 10559 10559 10558 10557 10557 10557 10557 10556 10556 10556 10557 10558 10559 10558 10557 10557 10557 10557 10557 10557 10557 10557 10557 10556 10556 10556 10555 10554 10553 10552 10552 10551 10551 10550 10549 10548 10547 10547 10546 10545 10544 10542 10541 10540 10538 10536 10533 10531 10529 10526 10525 10523 10521 10520 10519 10517 10516 10515 10514 10512 10511 10509 10508 10507 10506 10506 10504 10504 10502 10502 10501 10499
10560 10559 10559 10559 10558 10556 10554 10553 10554 10557 10558 10556 10554 10552 10552 10553 10552 10551 10551 10551 10550 10549 10549 10548 10549 10550 10551 10551 10551 10550 10549 10549 10549 10549 10549 10549 10549 10549 10548 10548 10547 10546 10546 10545 10544 10543 10542 10542 10541 10541 10539 10539 10537 10537 10536 10535 10534 10532 10531 10529 10527 10524 10522 10520 10518 10516 10514 10512 10511 10509 10507 10506 10505 10504 10502 10500 10499 10497 10496 10496 10495 10494 10493 10492 10491 10490
10551 10551 10550 10549 10548 10547 10546 10545 10547 10550 10551 10550 10547 10546 10546 10546 10546 10544 10544 10544 10544 10543 10542 10541 10541 10542 10542 10543 10542 10542 10542 10541 10541 10540 10540 10540 10540 10540 10540 10540 10539 10539 10538 10537 10536 10535 10534 10534 10533 10532 10531 10531 10529 10529 10528 10527 10526 10525 10524 10522 10520 10518 10516 10514 10511 10509 10506 10504 10502 10501 10499 10497 10496 10494 10493 10491 10489 10488 10487 10486 10484 10484 10483 10482 10481 10480
10542 10542 10541 10539 10538 10537 10537 10536 10538 10541 10544 10543 10540 10538 10538 10538 10538 10537 10536 10536 10536 10536 10535 10534 10533 10533 10533 10533 10533 10534 10534 10533 10532 10532 10532 10532 10531 10531 10531 10531 10531 10530 10529 10529 10528 10527 10526 10526 10524 10523 10522 10522 10521 10520 10519 10519 10517 10517 10516 10514 10512 10511 10508 10506 10504 10502 10499 10497 10495 10492 10491 10489 10487 10486 10484 10482 10481 10479 10477 10476 10474 10473 10472 10472 10471 10469
10533 10534 10533 10531 10530 10529 10527 10526 10528 10532 10534 10534 10532 10531 10530 10530 10529 10529 10528 10528 10528 10527 10526 10526 10525 10525 10524 10524 10524 10524 10524 10524 10524 10523 10523 10523 10523 10522 10522 10521 10521 10520 10519 10519 10518 10517 10517 10516 10515 10514 10513 10512 10512 10511 10511 10509 10509 10507 10506 10504 10503 10502 10500 10498 10496 10494 10492 10489 10487 10486 10483 10481 10479 10477 10476 10474 10472 10470 10468 10466 10465 10463 10462 10461 10460 10459
10524 10524 10525 10524 10522 10520 10517 10517 10519 10522 10523 10523 10522 10521 10521 10521 10521 10520 10519 10519 10519 10518 10517 10517 10517 10517 10516 10516 10516 10516 10516 10516 10515 10514 10514 10514 10514 10513 10512 10512 10511 10511 10510 10509 10509 10508 10507 10507 10506 10505 10504 10504 10502 10502 10501 10500 10499 10497 10496 10495 10494 10492 10491 10489 10487 10486 10484 10482 10480 10478 10476 10474 10472 10470 10467 10466 10464 10462 10460 10458 10456 10454 10453 10451 10450 10449
10514 10516 10517 10516 10514 10512 10510 10509 10510 10511 10512 10512 10512 10512 10511 10511 10511 10511 10511 10509 10509 10509 10509 10509 10508 10507 10507 10507 10507 10507 10506 10506 10506 10505 10504 10504 10504 10504 10503 10503 10502 10501 10501 10500 10499 10499 10498 10497 10497 10496 10495 10494 10493 10492 10491 10490 10489 10487 10486 10485 10484 10482 10481 10479 10478 10476 10475 10473 10472 10470 10468 10466 10464 10462 10460 10458 10456 10454 10452 10451 10449 10447 10445 10443 10442 10441
10505 10506 10507 10507 10506 10504 10502 10501 10501 10502 10502 10503 10503 10502 10501 10501 10501 10501 10501 10501 10500 10500 10500 10499 10498 10498 10497 10497 10497 10497 10497 10496 10496 10495 10494 10494 10494 10494 10493 10493 10492 10492 10491 10491 10490 10489 10489 10487 10487 10486 10486 10485 10484 10482 10481 10480 10479 10477 10476 10474 10473 10472 10471 10469 10468 10467 10466 10464 10462 10461 10459 10457 10456 10454 10452 10451 10449 10447 10446 10444 10442 10440 10438 10436 10435 10433
10495 10496 10497 10497 10497 10496 10495 10493 10492 10492 10494 10494 10494 10493 10492 10491 10491 10491 10491 10491 10491 10491 10490 10489 10489 10488 10487 10487 10487 10487 10487 10486 10485 10484 10484 10484 10483 10482 10482 10482 10482 10482 10481 10481 10480 10479 10479 10477 10477 10476 10476 10475 10474 10472 10471 10470 10468 10467 10466 10464 10463 10462 10461 10459 10458 10457 10456 10455 10454 10452 10451 10449 10447 10446 10444 10443 10441 10440 10438 10437 10435 10433 10431 10429 10428 10426
10484 10486 10486 10486 10486 10486 10486 10485 10483 10482 10484 10485 10486 10484 10482 10482 10482 10482 10481 10481 10481 10480 10480 10481 10480 10478 10477 10476 10477 10477 10477 10476 10475 10474 10473 10473 10472 10471 10471 10471 10471 10471 10470 10470 10469 10469 10468 10467 10467 10466 10466 10465 10464 10462 10461 10460 10459 10457 10456 10455 10454 10452 10451 10450 10449 10448 10447 10446 10445 10444 10442 10441 10439 10438 10437 10435 10434 10432 10431 10429 10427 10426 10424 10422 10421 10419
10474 10474 10476 10476 10476 10476 10476 10475 10474 10473 10474 10475 10476 10474 10473 10472 10473 10473 10472 10471 10470 10470 10471 10471 10470 10469 10467 10467 10467 10467 10467 10466 10466 10464 10463 10462 10462 10461 10460 10460 10459 10459 10459 10459 10458 10457 10457 10457 10457 10457 10456 10456 10454 10453 10452 10451 10449 10449 10447 10446 10445 10444 10442 10442 10441 10439 10439 10437 10436 10435 10434 10432 10431 10430 10429 10427 10426 10424 10423 10421 10420 10418 10417 10415 10414 10412
10465 10465 10465 10466 10466 10465 10465 10464 10464 10463 10464 10465 10465 10464 10462 10462 10463 10464 10464 10462 10461 10459 10460 10461 10460 10459 10457 10457 10457 10457 10457 10457 10456 10455 10454 10453 10452 10452 10451 10450 10449 10449 10448 10448 10447 10447 10447 10447 10447 10447 10447 10446 10445 10444 10443 10442 10441 10440 10439 10437 10436 10435 10434 10433 10432 10431 10430 10429 10428 10427 10426 10424 10423 10422 10421 10419 10418 10416 10415 10413 10412 10410 10409 10407 10406 10404
10456 10456 10456 10456 10456 10455 10454 10454 10454 10454 10454 10454 10454 10454 10453 10452 10454 10455 10456 10453 10451 10449 10450 10451 10450 10448 10447 10447 10448 10448 10447 10446 10446 10446 10445 10445 10444 10443 10442 10441 10440 10439 10437 10437 10437 10437 10436 10437 10437 10437 10437 10436 10435 10434 10434 10432 10432 10431 10429 10429 10427 10426 10426 10424 10424 10422 10421 10421 10419 10418 10417 10416 10415 10414 10412 10411 10409 10408 10406 10405 10404 10402 10401 10399 10397 10396
10447 10446 10446 10446 10446 10445 10445 10445 10445 10444 10444 10443 10444 10444 10444 10444 10444 10445 10444 10442 10441 10439 10440 10441 10440 10438 10436 10437 10437 10438 10437 10437 10436 10436 10435 10435 10434 10434 10434 10433 10431 10429 10427 10427 10427 10427 10426 10426 10427 10427 10426 10424 10424 10424 10423 10422 10422 10421 10420 10419 10418 10417 10416 10416 10414 10413 10412 10411 10410 10409 10408 10407 10406 10404 10403 10402 10401 10399 10397 10396 10394 10393 10392 10390 10389 10387
10438 10437 10437 10437 10436 10436 10436 10436 10436 10436 10434 10434 10434 10435 10435 10435 10434 10434 10433 10432 10431 10429 10430 10431 10429 10427 10426 10426 10427 10428 10427 10427 10426 10425 10424 10423 10422 10423 10424 10424 10423 10421 10418 10419 10419 10417 10416 10416 10417 10417 10415 10413 10412 10412 10412 10412 10411 10411 10410 10409 10408 10407 10406 10406 10404 10404 10402 10402 10401 10400 10399 10397 10397 10396 10394 10392 10391 10390 10388 10387 10386 10384 10382 10381 10379 10378
10429 10429 10429 10428 10427 10427 10427 10427 10427 10427 10426 10426 10426 10426 10426 10425 10424 10424 10423 10423 10421 10421 10420 10420 10419 10417 10415 10415 10416 10417 10419 10418 10416 10414 10412 10412 10411 10411 10412 10415 10414 10411 10408 10409 10410 10409 10407 10407 10407 10407 10405 10403 10402 10401 10401 10401 10400 10399 10399 10399 10398 10397 10396 10395 10394 10394 10392 10392 10391 10390 10389 10388 10387 10386 10384 10383 10381 10380 10379 10377 10376 10374 10373 10371 10370 10368
10421 10421 10421 10420 10419 10419 10419 10419 10419 10419 10417 10417 10417 10417 10417 10416 10415 10414 10414 10414 10412 10411 10411 10409 10409 10407 10406 10404 10405 10406 10409 10409 10407 10404 10402 10401 10400 10400 10401 10404 10404 10402 10398 10398 10399 10401 10399 10399 10398 10397 10396 10394 10392 10392 10391 10391 10390 10389 10389 10388 10387 10386 10386 10384 10384 10383 10382 10382 10381 10380 10379 10378 10377 10376 10374 10373 10371 10370 10369 10367 10366 10364 10363 10361 10359 10358
10412 10412 10412 10411 10411 10411 10410 10410 10410 10409 10409 10409 10409 10408 10407 10407 10407 10406 10405 10404 10403 10402 10401 10400 10399 10398 10397 10396 10394 10396 10398 10401 10399 10396 10392 10390 10389 10389 10390 10393 10394 10391 10387 10387 10388 10389 10389 10389 10388 10387 10386 10385 10384 10383 10382 10382 10381 10380 10379 10378 10377 10376 10375 10374 10374 10373 10372 10372 10371 10370 10369 10368 10367 10366 10364 10363 10361 10360 10359 10357 10356 10354 10352 10351 10349 10347
10403 10403 10403 10403 10402 10402 10401 10401 10401 10401 10401 10400 10399 10399 10399 10398 10397 10397 10396 10395 10394 10393 10392 10391 10389 10389 10387 10387 10386 10386 10389 10391 10390 10386 10382 10380 10379 10378 10379 10382 10382 10381 10377 10377 10377 10378 10378 10377 10377 10376 10376 10375 10374 10374 10373 10372 10371 10371 10369 10369 10367 10366 10366 10365 10364 10364 10362 10362 10361 10360 10359 10357 10357 10356 10354 10353 10351 10350 10349 10347 10346 10344 10342 10341 10339 10337
10395 10395 10395 10394 10394 10394 10393 10392 10392 10392 10392 10392 10391 10391 10390 10389 10389 10388 10387 10386 10385 10384 10383 10382 10381 10379 10378 10378 10377 10378 10379 10381 10380 10377 10373 10371 10369 10368 10369 10371 10372 10371 10367 10366 10367 10367 10367 10366 10366 10364 10364 10364 10364 10363 10363 10362 10361 10361 10360 10359 10358 10357 10356 10356 10355 10354 10353 10352 10351 10350 10349 10348 10347 10346 10344 10343 10342 10340 10339 10337 10336 10334 10332 10331 10329 10327
10387 10387 10387 10386 10386 10386 10385 10384 10384 10384 10384 10384 10382 10382 10381 10381 10380 10379 10378 10377 10376 10376 10374 10373 10372 10370 10369 10369 10369 10369 10371 10372 10371 10368 10364 10362 10361 10359 10359 10361 10362 10361 10358 10357 10356 10357 10357 10356 10354 10354 10354 10354 10353 10352 10352 10351 10351 10350 10349 10349 10348 10347 10347 10346 10346 10345 10344 10343 10342 10341 10339 10339 10337 10336 10335 10333 10332 10331 10329 10327 10326 10324 10322 10321 10319 10317
10381 10379 10379 10379 10379 10378 10377 10377 10376 10376 10376 10376 10374 10374 10372 10372 10371 10371 10369 10369 10368 10367 10366 10364 10363 10362 10362 10361 10361 10361 10362 10362 10362 10359 10356 10354 10352 10350 10350 10352 10353 10351 10348 10347 10346 10347 10346 10346 10344 10344 10343 10343 10343 10342 10341 10341 10340 10339 10339 10339 10338 10337 10337 10337 10336 10335 10334 10334 10332 10332 10331 10329 10328 10327 10326 10324 10322 10321 10319 10318 10316 10315 10313 10311 10310 10308
10374 10372 10372 10372 10372 10371 10370 10369 10369 10369 10368 10367 10367 10366 10364 10364 10364 10362 10361 10361 10360 10359 10357 10356 10355 10354 10354 10353 10353 10353 10354 10354 10353 10351 10349 10347 10343 10341 10342 10344 10344 10342 10339 10337 10337 10337 10336 10336 10334 10334 10334 10334 10333 10332 10331 10330 10329 10329 10329 10329 10328 10328 10327 10327 10326 10326 10325 10324 10324 10322 10322 10321 10319 10318 10317 10315 10314 10312 10311 10309 10307 10306 10304 10302 10301 10299
10367 10366 10366 10365 10364 10364 10363 10362 10362 10361 10361 10360 10359 10358 10357 10357 10356 10355 10354 10353 10352 10351 10349 10349 10347 10346 10346 10346 10346 10346 10346 10346 10346 10344 10342 10339 10336 10334 10334 10335 10334 10332 10329 10328 10328 10328 10327 10325 10324 10324 10324 10324 10323 10322 10321 10321 10320 10319 10319 10319 10319 10318 10318 10317 10317 10316 10316 10315 10314 10314 10312 10312 10311 10309 10307 10306 10304 10303 10302 10300 10299 10297 10296 10294 10292 10291
10360 10359 10359 10358 10357 10357 10356 10356 10354 10354 10353 10352 10351 10351 10350 10349 10348 10347 10347 10346 10344 10343 10342 10341 10340 10339 10337 10338 10338 10337 10337 10338 10338 10337 10334 10331 10329 10327 10326 10326 10326 10324 10321 10319 10319 10319 10317 10316 10315 10314 10315 10314 10314 10313 10312 10312 10311 10311 10311 10310 10310 10309 10309 10309 10308 10307 10307 10307 10306 10305 10304 10303 10301 10300 10299 10297 10296 10294 10293 10291 10290 10289 10287 10286 10284 10282
10353 10352 10352 10351 10351 10350 10349 10349 10347 10347 10346 10345 10344 10343 10342 10342 10341 10340 10339 10338 10337 10336 10335 10334 10332 10331 10331 10331 10331 10330 10330 10331 10331 10329 10327 10324 10322 10319 10318 10318 10317 10316 10313 10311 10311 10310 10309 10307 10306 10305 10306 10305 10305 10304 10304 10303 10302 10302 10302 10302 10302 10301 10301 10301 10300 10299 10299 10298 10297 10296 10295 10294 10292 10291 10290 10289 10287 10286 10284 10283 10281 10280 10279 10277 10275 10273
10347 10346 10345 10344 10344 10343 10342 10341 10341 10340 10339 10338 10337 10336 10336 10335 10334 10332 10332 10331 10330 10329 10328 10326 10325 10324 10323 10323 10322 10322 10323 10324 10323 10322 10320 10318 10315 10312 10310 10310 10309 10308 10306 10303 10302 10301 10300 10298 10297 10296 10296 10296 10296 10296 10296 10295 10295 10294 10294 10294 10294 10293 10293 10292 10292 10291 10291 10290 10289 10287 10287 10286 10284 10283 10282 10280 10279 10277 10276 10274 10273 10272 10270 10269 10267 10265
10341 10339 10339 10337 10337 10336 10335 10334 10334 10333 10332 10331 10331 10329 10329 10328 10327 10326 10324 10324 10324 10322 10321 10319 10318 10317 10316 10316 10315 10316 10316 10316 10316 10314 10313 10311 10307 10304 10302 10302 10302 10301 10298 10296 10294 10292 10291 10289 10288 10287 10287 10287 10287 10287 10287 10287 10287 10287 10287 10287 10286 10286 10285 10284 10284 10283 10282 10281 10281 10279 10278 10277 10276 10274 10273 10272 10271 10269 10267 10266 10265 10264 10262 10261 10259 10257
10335 10334 10332 10331 10331 10329 10329 10327 10327 10326 10325 10324 10323 10322 10322 10321 10320 10319 10317 10317 10317 10316 10314 10312 10311 10311 10309 10308 10308 10308 10308 10309 10308 10307 10306 10304 10300 10297 10296 10296 10294 10292 10291 10289 10287 10284 10283 10281 10280 10279 10279 10278 10279 10279 10279 10279 10280 10280 10280 10280 10279 10279 10278 10277 10276 10276 10274 10274 10272 10271 10270 10269 10267 10266 10265 10264 10262 10261 10259 10258 10257 10256 10254 10252 10251 10249
10329 10328 10327 10326 10324 10323 10322 10321 10320 10319 10318 10317 10316 10315 10314 10314 10313 10312 10311 10311 10310 10309 10307 10306 10305 10304 10302 10301 10301 10300 10301 10301 10301 10301 10299 10296 10292 10290 10289 10289 10287 10286 10285 10282 10280 10277 10274 10273 10272 10272 10271 10270 10270 10270 10271 10272 10272 10272 10272 10272 10272 10271 10271 10270 10269 10268 10267 10266 10264 10263 10262 10261 10260 10259 10257 10256 10254 10252 10251 10250 10249 10248 10247 10245 10244 10242
10324 10323 10321 10320 10319 10318 10317 10316 10314 10313 10312 10311 10309 10309 10307 10307 10306 10306 10304 10304 10303 10302 10301 10299 10298 10297 10296 10295 10294 10292 10292 10294 10294 10294 10292 10288 10285 10283 10283 10281 10280 10279 10278 10277 10274 10271 10267 10265 10264 10264 10264 10262 10262 10262 10262 10264 10264 10265 10265 10265 10264 10264 10264 10263 10262 10261 10259 10258 10257 10256 10255 10254 10252 10251 10250 10248 10247 10245 10244 10242 10242 10241 10239 10238 10236 10234
10319 10317 10316 10315 10314 10312 10311 10309 10308 10307 10306 10304 10303 10302 10301 10300 10299 10299 10297 10297 10296 10295 10294 10292 10292 10291 10289 10288 10287 10286 10286 10286 10287 10286 10284 10281 10278 10276 10276 10275 10273 10272 10272 10271 10269 10265 10262 10259 10256 10256 10256 10254 10254 10254 10255 10256 10257 10257 10257 10257 10257 10257 10257 10256 10255 10254 10252 10251 10250 10249 10248 10247 10246 10244 10242 10241 10239 10237 10236 10236 10234 10234 10232 10231 10229 10227
10314 10312 10311 10310 10308 10307 10305 10304 10302 10301 10299 10298 10297 10296 10295 10294 10293 10292 10291 10291 10289 10289 10287 10286 10285 10284 10282 10282 10281 10279 10279 10279 10279 10279 10277 10274 10272 10270 10269 10268 10267 10266 10265 10264 10262 10260 10257 10254 10251 10248 10247 10246 10246 10247 10247 10249 10249 10250 10251 10250 10249 10249 10249 10249 10248 10247 10246 10244 10243 10242 10241 10240 10238 10237 10235 10233 10232 10231 10229 10228 10227 10226 10226 10224 10222 10220
10309 10307 10306 10305 10303 10302 10300 10298 10297 10295 10294 10292 10291 10290 10289 10288 10287 10286 10286 10284 10284 10282 10281 10280 10279 10277 10276 10275 10274 10273 10272 10272 10272 10272 10270 10268 10266 10264 10263 10262 10261 10260 10259 10257 10256 10254 10252 10249 10246 10243 10241 10239 10239 10239 10240 10241 10242 10243 10243 10243 10242 10242 10242 10242 10241 10240 10239 10237 10236 10235 10234 10233 10231 10229 10228 10226 10225 10223 10222 10221 10220 10219 10218 10217 10215 10213
10303 10302 10301 10300 10299 10297 10295 10294 10292 10290 10288 10287 10286 10284 10283 10282 10281 10281 10279 10279 10277 10276 10275 10274 10272 10271 10270 10269 10267 10267 10266 10266 10266 10265 10263 10261 10259 10258 10257 10256 10255 10254 10252 10251 10250 10249 10246 10244 10242 10239 10236 10234 10232 10232 10234 10234 10235 10236 10236 10236 10236 10235 10234 10234 10234 10233 10232 10231 10230 10229 10227 10226 10224 10222 10221 10219 10218 10217 10216 10214 10213 10212 10211 10210 10209 10207
10298 10297 10296 10295 10294 10292 10291 10289 10287 10286 10284 10282 10280 10279 10277 10276 10275 10274 10273 10272 10271 10271 10269 10268 10267 10266 10264 10263 10262 10261 10260 10260 10259 10259 10257 10256 10254 10252 10251 10249 10249 10248 10247 10245 10244 10242 10241 10238 10236 10234 10232 10229 10227 10226 10227 10228 10229 10229 10229 10229 10228 10228 10227 10227 10227 10226 10225 10224 10223 10222 10221 10219 10217 10216 10214 10213 10212 10210 10209 10207 10206 10206 10204 10203 10202 10201
10293 10292 10291 10291 10289 10288 10286 10285 10283 10281 10279 10277 10276 10274 10272 10271 10269 10269 10267 10267 10266 10264 10264 10262 10261 10260 10259 10257 10256 10255 10254 10254 10253 10252 10251 10250 10248 10246 10244 10243 10242 10242 10241 10239 10237 10236 10235 10233 10231 10229 10227 10226 10224 10222 10221 10221 10222 10222 10222 10222 10221 10221 10220 10220 10220 10219 10218 10217 10216 10215 10214 10212 10211 10209 10208 10206 10205 10203 10202 10201 10200 10199 10197 10196 10195 10194
10287 10287 10286 10285 10284 10283 10282 10281 10279 10277 10276 10274 10272 10270 10268 10266 10265 10263 10262 10261 10260 10259 10258 10257 10256 10255 10254 10252 10251 10250 10249 10248 10247 10246 10245 10244 10242 10241 10239 10237 10237 10236 10236 10234 10232 10231 10229 10227 10226 10224 10222 10221 10219 10217 10216 10216 10216 10216 10215 10215 10215 10214 10214 10214 10214 10213 10212 10211 10209 10208 10207 10206 10204 10202 10201 10199 10198 10196 10195 10194 10193 10192 10191 10190 10189 10187
10282 10281 10281 10280 10279 10278 10277 10276 10274 10273 10272 10270 10267 10266 10264 10262 10260 10259 10257 10256 10255 10254 10253 10252 10251 10250 10249 10247 10246 10245 10244 10242 10242 10241 10239 10239 10237 10236 10234 10232 10231 10230 10229 10228 10227 10226 10224 10222 10221 10219 10217 10216 10214 10212 10212 10211 10210 10209 10209 10209 10208 10207 10207 10207 10207 10207 10206 10205 10203 10202 10201 10199 10198 10196 10194 10192 10191 10189 10188 10187 10186 10185 10184 10183 10182 10181
10277 10276 10276 10274 10274 10273 10272 10271 10269 10268 10267 10266 10264 10262 10260 10257 10256 10254 10252 10251 10250 10249 10247 10247 10246 10245 10244 10243 10242 10241 10239 10238 10237 10236 10234 10233 10232 10231 10229 10227 10226 10224 10224 10222 10222 10221 10219 10217 10216 10214 10213 10211 10209 10207 10206 10206 10205 10204 10204 10202 10201 10201 10201 10202 10201 10201 10200 10199 10197 10196 10194 10193 10191 10189 10187 10186 10184 10183 10182 10181 10179 10178 10177 10176 10175 10174
10272 10271 10270 10269 10268 10267 10266 10266 10264 10263 10262 10261 10259 10257 10256 10253 10251 10249 10247 10246 10245 10244 10242 10242 10241 10240 10239 10238 10237 10236 10234 10233 10232 10231 10229 10228 10227 10225 10224 10222 10221 10219 10218 10217 10216 10215 10214 10212 10211 10209 10208 10207 10204 10202 10201 10200 10200 10199 10199 10197 10196 10194 10194 10194 10195 10194 10194 10192 10191 10190 10188 10187 10185 10183 10181 10179 10178 10177 10176 10174 10172 10171 10171 10170 10169 10167
10266 10266 10264 10264 10262 10262 10261 10260 10259 10258 10257 10256 10254 10252 10251 10249 10247 10245 10243 10242 10240 10239 10237 10237 10236 10235 10234 10233 10232 10231 10230 10228 10227 10226 10224 10223 10222 10221 10219 10217 10216 10214 10213 10212 10211 10210 10209 10208 10206 10205 10203 10202 10200 10198 10196 10195 10194 10194 10193 10192 10191 10189 10188 10187 10188 10189 10187 10186 10185 10184 10182 10181 10179 10177 10175 10173 10172 10170 10169 10167 10166 10165 10164 10163 10162 10162
10261 10261 10259 10259 10257 10256 10256 10254 10254 10252 10252 10251 10249 10247 10246 10244 10243 10241 10239 10237 10236 10234 10233 10232 10231 10230 10229 10228 10227 10226 10226 10224 10222 10221 10220 10218 10217 10216 10214 10212 10211 10210 10209 10207 10206 10204 10204 10203 10202 10200 10199 10197 10196 10193 10191 10190 10189 10189 10188 10187 10186 10184 10182 10181 10181 10182 10181 10180 10179 10177 10176 10175 10173 10171 10169 10167 10166 10164 10162 10161 10160 10159 10158 10157 10156 10156
10256 10256 10254 10254 10252 10251 10251 10249 10248 10247 10246 10245 10244 10242 10241 10240 10239 10237 10235 10233 10231 10230 10229 10227 10226 10225 10224 10223 10222 10221 10221 10219 10219 10217 10216 10214 10212 10211 10209 10208 10206 10205 10204 10202 10201 10199 10198 10197 10196 10196 10194 10192 10191 10189 10187 10186 10184 10184 10182 10182 10181 10179 10177 10176 10175 10174 10174 10173 10172 10171 10170 10169 10167 10165 10163 10161 10159 10157 10156 10155 10154 10153 10152 10151 10151 10149
10251 10251 10250 10249 10247 10246 10245 10244 10243 10242 10241 10240 10239 10238 10237 10235 10234 10232 10231 10229 10227 10226 10224 10223 10221 10220 10219 10218 10217 10217 10216 10215 10214 10213 10211 10210 10208 10207 10205 10203 10202 10201 10199 10197 10196 10194 10193 10192 10191 10191 10189 10188 10186 10184 10183 10181 10180 10179 10177 10177 10176 10174 10172 10171 10170 10168 10167 10166 10166 10165 10164 10163 10162 10159 10157 10155 10153 10152 10150 10149 10148 10147 10146 10146 10144 10144
10247 10246 10245 10244 10243 10242 10241 10239 10238 10237 10236 10235 10234 10233 10232 10231 10229 10227 10226 10224 10223 10221 10220 10219 10217 10216 10214 10213 10212 10212 10211 10210 10209 10208 10207 10206 10204 10202 10201 10199 10197 10196 10194 10192 10191 10190 10189 10187 10186 10185 10184 10183 10182 10181 10179 10177 10176 10174 10172 10172 10171 10169 10167 10166 10164 10163 10162 10160 10159 10158 10157 10157 10156 10154 10152 10150 10147 10146 10144 10143 10142 10141 10140 10139 10139 10137
10242 10241 10240 10239 10238 10237 10236 10235 10234 10232 10231 10231 10229 10229 10227 10226 10224 10223 10222 10220 10219 10217 10216 10214 10213 10211 10210 10209 10208 10207 10206 10205 10204 10204 10202 10201 10200 10199 10197 10195 10194 10192 10190 10188 10187 10185 10184 10182 10182 10181 10179 10179 10177 10176 10174 10173 10172 10170 10168 10167 10166 10164 10162 10161 10159 10158 10157 10155 10154 10152 10152 10151 10150 10148 10147 10145 10142 10140 10138 10137 10136 10135 10134 10134 10133 10132
10237 10237 10236 10235 10234 10232 10231 10231 10229 10228 10227 10226 10225 10224 10223 10222 10221 10219 10217 10216 10214 10213 10211 10210 10209 10207 10206 10205 10204 10202 10201 10200 10199 10199 10197 10196 10195 10194 10192 10191 10189 10187 10186 10184 10182 10181 10179 10178 10177 10176 10175 10174 10172 10171 10169 10168 10167 10166 10164 10162 10161 10159 10157 10155 10154 10153 10151 10150 10149 10147 10146 10146 10144 10143 10141 10140 10137 10135 10133 10131 10130 10129 10129 10128 10127 10126
10233 10232 10231 10230 10229 10228 10227 10226 10225 10224 10222 10222 10221 10219 10219 10217 10216 10214 10213 10211 10210 10209 10207 10206 10204 10203 10202 10201 10200 10199 10197 10196 10195 10194 10193 10192 10191 10189 10187 10186 10185 10183 10182 10180 10179 10177 10176 10174 10172 10172 10171 10170 10168 10166 10164 10163 10162 10161 10160 10158 10156 10154 10152 10151 10149 10147 10146 10145 10144 10142 10141 10141 10139 10138 10137 10135 10132 10131 10128 10126 10124 10123 10123 10122 10122 10121
10229 10227 10227 10226 10224 10223 10222 10221 10221 10219 10218 10217 10216 10215 10214 10213 10212 10211 10209 10207 10206 10204 10203 10202 10201 10199 10198 10197 10196 10195 10194 10192 10191 10190 10189 10187 10186 10184 10183 10182 10180 10179 10177 10176 10174 10172 10171 10169 10168 10167 10167 10166 10164 10162 10160 10159 10158 10157 10156 10154 10152 10150 10148 10146 10144 10142 10141 10139 10138 10137 10136 10136 10134 10134 10132 10131 10129 10126 10124 10121 10119 10117 10117 10116 10116 10115
10224 10223 10222 10221 10220 10219 10218 10217 10216 10215 10214 10213 10212 10211 10210 10209 10207 10206 10205 10204 10202 10201 10199 10197 10196 10195 10194 10192 10192 10191 10190 10188 10187 10186 10184 10183 10182 10180 10179 10177 10176 10174 10172 10171 10169 10168 10166 10165 10163 10162 10162 10162 10161 10159 10156 10154 10153 10152 10151 10149 10147 10146 10144 10142 10140 10138 10136 10134 10133 10132 10131 10131 10129 10129 10128 10127 10125 10122 10120 10117 10114 10112 10111 10111 10110 10109